Time,TemperatureF,DewpointF,PressureIn,WindDirection,WindDirectionDegrees,WindSpeedMPH,WindSpeedGustMPH,Humidity,HourlyPrecipIn,Conditions,Clouds,dailyrainin,SoftwareType,DateUTC
2013-06-18 00:02:00,81.0,76.0,30.05,SSE,154,3.0,9.0,86,0.00,,,0.00,,2013-06-18 04:02:00,
2013-06-18 00:12:00,80.0,75.0,30.05,SSW,192,2.0,8.0,86,0.00,,,0.00,,2013-06-18 04:12:00,
2013-06-18 00:23:00,80.0,75.0,30.05,SSW,192,2.0,8.0,86,0.00,,,0.00,,2013-06-18 04:23:00,
2013-06-18 00:34:00,80.0,76.0,30.05,SSW,203,3.0,8.0,87,0.00,,,0.00,,2013-06-18 04:34:00,
2013-06-18 00:43:00,80.0,76.0,30.05,SSW,203,3.0,8.0,87,0.00,,,0.00,,2013-06-18 04:43:00,
2013-06-18 00:54:00,80.0,76.0,30.05,SSW,195,2.0,7.0,88,0.00,,,0.00,,2013-06-18 04:54:00,
2013-06-18 01:02:00,80.0,76.0,30.05,SSW,195,2.0,7.0,88,0.00,,,0.00,,2013-06-18 05:02:00,
2013-06-18 01:12:00,80.0,76.0,30.05,South,172,3.0,5.0,88,0.00,,,0.00,,2013-06-18 05:12:00,
2013-06-18 01:22:00,79.0,75.0,30.04,SSW,207,1.0,6.0,89,0.00,,,0.00,,2013-06-18 05:22:00,
2013-06-18 01:34:00,79.0,75.0,30.04,SSW,207,1.0,6.0,89,0.00,,,0.00,,2013-06-18 05:34:00,
2013-06-18 01:43:00,79.0,75.0,30.05,SSW,205,1.0,3.0,89,0.00,,,0.00,,2013-06-18 05:43:00,
2013-06-18 01:53:00,79.0,76.0,30.05,WSW,243,0.0,4.0,90,0.00,,,0.00,,2013-06-18 05:53:00,
2013-06-18 02:02:00,79.0,76.0,30.05,WSW,243,0.0,4.0,90,0.00,,,0.00,,2013-06-18 06:02:00,
2013-06-18 02:11:00,79.0,76.0,30.04,WSW,257,0.0,2.0,90,0.00,,,0.00,,2013-06-18 06:11:00,
2013-06-18 02:23:00,79.0,76.0,30.04,SE,143,0.0,2.0,91,0.00,,,0.00,,2013-06-18 06:23:00,
2013-06-18 02:32:00,79.0,76.0,30.04,SE,143,0.0,2.0,91,0.00,,,0.00,,2013-06-18 06:32:00,
2013-06-18 02:43:00,78.0,75.0,30.04,SSW,200,0.0,2.0,91,0.00,,,0.00,,2013-06-18 06:43:00,
2013-06-18 02:53:00,78.0,75.0,30.04,SSW,203,0.0,1.0,92,0.00,,,0.00,,2013-06-18 06:53:00,
2013-06-18 03:02:00,78.0,75.0,30.03,SSE,148,0.0,2.0,92,0.00,,,0.00,,2013-06-18 07:02:00,
2013-06-18 03:12:00,78.0,75.0,30.03,SSE,148,0.0,2.0,92,0.00,,,0.00,,2013-06-18 07:12:00,
2013-06-18 03:22:00,78.0,76.0,30.03,SE,143,0.0,2.0,93,0.00,,,0.00,,2013-06-18 07:22:00,
2013-06-18 03:33:00,78.0,76.0,30.03,SE,143,0.0,2.0,93,0.00,,,0.00,,2013-06-18 07:33:00,
2013-06-18 03:43:00,77.0,75.0,30.03,WSW,239,0.0,2.0,93,0.00,,,0.00,,2013-06-18 07:43:00,
2013-06-18 03:53:00,77.0,75.0,30.03,SW,224,0.0,3.0,94,0.00,,,0.00,,2013-06-18 07:53:00,
2013-06-18 04:02:00,77.0,75.0,30.03,SW,224,0.0,3.0,94,0.00,,,0.00,,2013-06-18 08:02:00,
2013-06-18 04:11:00,77.0,75.0,30.02,SSW,212,1.0,4.0,94,0.00,,,0.00,,2013-06-18 08:11:00,
2013-06-18 04:23:00,77.0,75.0,30.01,SW,228,1.0,4.0,93,0.00,,,0.00,,2013-06-18 08:23:00,
2013-06-18 04:33:00,77.0,75.0,30.01,SW,228,1.0,4.0,93,0.00,,,0.00,,2013-06-18 08:33:00,
2013-06-18 04:43:00,77.0,75.0,30.01,SW,215,0.0,3.0,94,0.00,,,0.00,,2013-06-18 08:43:00,
2013-06-18 04:52:00,77.0,75.0,30.01,SW,233,0.0,1.0,94,0.00,,,0.00,,2013-06-18 08:52:00,
2013-06-18 05:02:00,77.0,75.0,30.01,SSW,210,1.0,3.0,94,0.00,,,0.00,,2013-06-18 09:02:00,
2013-06-18 05:12:00,77.0,75.0,30.01,SSW,210,1.0,3.0,94,0.00,,,0.00,,2013-06-18 09:12:00,
2013-06-18 05:22:00,77.0,75.0,30.01,SSW,210,1.0,3.0,94,0.00,,,0.00,,2013-06-18 09:22:00,
2013-06-18 05:34:00,77.0,75.0,30.01,SSE,155,1.0,3.0,95,0.00,,,0.00,,2013-06-18 09:34:00,
2013-06-18 07:43:00,76.0,75.0,30.04,SSW,207,0.0,1.0,96,0.00,,,0.00,,2013-06-18 11:43:00,
2013-06-18 07:52:00,77.0,76.0,30.04,SSW,207,0.0,1.0,96,0.00,,,0.00,,2013-06-18 11:52:00,
2013-06-18 08:01:00,77.0,76.0,30.04,SSW,207,0.0,1.0,96,0.00,,,0.00,,2013-06-18 12:01:00,
2013-06-18 08:11:00,79.0,77.0,30.04,SSW,207,0.0,1.0,94,0.00,,,0.00,,2013-06-18 12:11:00,
2013-06-18 08:22:00,80.0,77.0,30.05,SW,215,1.0,5.0,90,0.00,,,0.00,,2013-06-18 12:22:00,
2013-06-18 08:33:00,80.0,77.0,30.05,SW,215,1.0,5.0,90,0.00,,,0.00,,2013-06-18 12:33:00,
2013-06-18 08:43:00,81.0,77.0,30.05,SSW,193,2.0,5.0,88,0.00,,,0.00,,2013-06-18 12:43:00,
2013-06-18 08:52:00,83.0,78.0,30.06,SW,214,1.0,5.0,86,0.00,,,0.00,,2013-06-18 12:52:00,
2013-06-18 09:02:00,83.0,78.0,30.06,SW,214,1.0,5.0,86,0.00,,,0.00,,2013-06-18 13:02:00,
2013-06-18 09:12:00,83.0,77.0,30.06,SSW,211,3.0,8.0,83,0.00,,,0.00,,2013-06-18 13:12:00,
2013-06-18 09:22:00,84.0,78.0,30.06,WSW,245,2.0,8.0,81,0.00,,,0.00,,2013-06-18 13:22:00,
2013-06-18 09:33:00,84.0,78.0,30.06,WSW,245,2.0,8.0,81,0.00,,,0.00,,2013-06-18 13:33:00,
2013-06-18 09:43:00,85.0,78.0,30.06,SW,214,3.0,7.0,79,0.00,,,0.00,,2013-06-18 13:43:00,
2013-06-18 09:53:00,86.0,78.0,30.06,WSW,240,4.0,7.0,76,0.00,,,0.00,,2013-06-18 13:53:00,
2013-06-18 10:02:00,86.0,78.0,30.06,WSW,240,4.0,7.0,76,0.00,,,0.00,,2013-06-18 14:02:00,
2013-06-18 10:11:00,86.0,78.0,30.06,SSW,212,3.0,6.0,76,0.00,,,0.00,,2013-06-18 14:11:00,
2013-06-18 10:22:00,86.0,76.0,30.06,WSW,257,5.0,8.0,73,0.00,,,0.00,,2013-06-18 14:22:00,
2013-06-18 10:33:00,86.0,76.0,30.06,WSW,257,5.0,8.0,73,0.00,,,0.00,,2013-06-18 14:33:00,
2013-06-18 10:43:00,85.0,76.0,30.06,WSW,252,1.0,7.0,75,0.00,,,0.00,,2013-06-18 14:43:00,
2013-06-18 10:53:00,87.0,76.0,30.06,WSW,243,2.0,7.0,70,0.00,,,0.00,,2013-06-18 14:53:00,
2013-06-18 11:02:00,87.0,76.0,30.06,WSW,243,2.0,7.0,70,0.00,,,0.00,,2013-06-18 15:02:00,
2013-06-18 11:11:00,87.0,76.0,30.06,WSW,246,1.0,6.0,70,0.00,,,0.00,,2013-06-18 15:11:00,
2013-06-18 11:22:00,88.0,77.0,30.06,SW,226,2.0,7.0,69,0.00,,,0.00,,2013-06-18 15:22:00,
2013-06-18 11:33:00,88.0,77.0,30.06,SW,226,2.0,7.0,69,0.00,,,0.00,,2013-06-18 15:33:00,
2013-06-18 11:43:00,87.0,73.0,30.06,WSW,243,4.0,10.0,63,0.00,,,0.00,,2013-06-18 15:43:00,
2013-06-18 11:53:00,88.0,75.0,30.05,SSW,207,4.0,7.0,65,0.00,,,0.00,,2013-06-18 15:53:00,
2013-06-18 12:01:00,88.0,75.0,30.05,SSW,207,4.0,7.0,65,0.00,,,0.00,,2013-06-18 16:01:00,
2013-06-18 12:11:00,90.0,74.0,30.05,SW,229,4.0,8.0,59,0.00,,,0.00,,2013-06-18 16:11:00,
2013-06-18 12:23:00,90.0,73.0,30.04,East,101,2.0,6.0,58,0.00,,,0.00,,2013-06-18 16:23:00,
2013-06-18 12:33:00,90.0,73.0,30.04,East,101,2.0,6.0,58,0.00,,,0.00,,2013-06-18 16:33:00,
2013-06-18 12:43:00,88.0,77.0,30.05,ESE,105,7.0,12.0,70,0.00,,,0.00,,2013-06-18 16:43:00,
2013-06-18 12:53:00,87.0,78.0,30.05,East,92,7.0,11.0,74,0.00,,,0.00,,2013-06-18 16:53:00,
2013-06-18 13:02:00,86.0,76.0,30.04,ESE,121,6.0,11.0,73,0.00,,,0.00,,2013-06-18 17:02:00,
2013-06-18 13:12:00,86.0,76.0,30.04,ESE,121,6.0,11.0,73,0.00,,,0.00,,2013-06-18 17:12:00,
2013-06-18 13:22:00,87.0,78.0,30.04,ESE,112,6.0,11.0,74,0.00,,,0.00,,2013-06-18 17:22:00,
2013-06-18 13:33:00,87.0,78.0,30.04,ESE,112,6.0,11.0,74,0.00,,,0.00,,2013-06-18 17:33:00,
2013-06-18 13:43:00,87.0,77.0,30.04,East,90,5.0,13.0,73,0.00,,,0.00,,2013-06-18 17:43:00,
2013-06-18 13:53:00,87.0,77.0,30.03,East,94,7.0,14.0,72,0.00,,,0.00,,2013-06-18 17:53:00,
2013-06-18 14:02:00,87.0,76.0,30.03,NE,54,8.0,14.0,71,0.00,,,0.00,,2013-06-18 18:02:00,
2013-06-18 14:12:00,87.0,76.0,30.03,NE,54,8.0,14.0,71,0.00,,,0.00,,2013-06-18 18:12:00,
2013-06-18 14:22:00,88.0,76.0,30.02,SE,126,6.0,11.0,67,0.00,,,0.00,,2013-06-18 18:22:00,
2013-06-18 14:33:00,88.0,76.0,30.02,SE,126,6.0,11.0,67,0.00,,,0.00,,2013-06-18 18:33:00,
2013-06-18 14:42:00,88.0,76.0,30.02,ESE,120,5.0,13.0,67,0.00,,,0.00,,2013-06-18 18:42:00,
2013-06-18 14:53:00,88.0,75.0,30.02,East,84,8.0,13.0,65,0.00,,,0.00,,2013-06-18 18:53:00,
2013-06-18 15:02:00,88.0,75.0,30.02,East,84,8.0,13.0,65,0.00,,,0.00,,2013-06-18 19:02:00,
2013-06-18 15:12:00,88.0,76.0,30.01,ENE,70,6.0,13.0,67,0.00,,,0.00,,2013-06-18 19:12:00,
2013-06-18 15:22:00,88.0,76.0,30.01,ESE,117,7.0,13.0,67,0.00,,,0.00,,2013-06-18 19:22:00,
2013-06-18 15:33:00,88.0,76.0,30.01,ESE,117,7.0,13.0,67,0.00,,,0.00,,2013-06-18 19:33:00,
2013-06-18 15:43:00,88.0,77.0,30.01,SSW,201,7.0,13.0,69,0.00,,,0.00,,2013-06-18 19:43:00,
2013-06-18 15:52:00,87.0,76.0,30.01,ESE,105,9.0,15.0,70,0.00,,,0.00,,2013-06-18 19:52:00,
2013-06-18 16:02:00,87.0,76.0,30.01,ESE,105,9.0,15.0,70,0.00,,,0.00,,2013-06-18 20:02:00,
2013-06-18 16:11:00,87.0,77.0,30.00,East,101,5.0,15.0,73,0.00,,,0.00,,2013-06-18 20:11:00,
2013-06-18 16:23:00,87.0,77.0,29.99,ENE,68,9.0,13.0,72,0.00,,,0.00,,2013-06-18 20:23:00,
2013-06-18 16:33:00,86.0,76.0,29.99,ENE,75,8.0,14.0,73,0.00,,,0.00,,2013-06-18 20:33:00,
2013-06-18 16:43:00,86.0,76.0,29.99,ENE,75,8.0,14.0,73,0.00,,,0.00,,2013-06-18 20:43:00,
2013-06-18 16:52:00,86.0,77.0,29.99,ESE,118,6.0,15.0,74,0.00,,,0.00,,2013-06-18 20:52:00,
2013-06-18 17:02:00,86.0,77.0,29.99,ESE,118,6.0,15.0,74,0.00,,,0.00,,2013-06-18 21:02:00,
2013-06-18 17:12:00,86.0,77.0,29.98,East,82,8.0,15.0,74,0.00,,,0.00,,2013-06-18 21:12:00,
2013-06-18 17:23:00,86.0,77.0,29.98,East,82,8.0,15.0,74,0.00,,,0.00,,2013-06-18 21:23:00,
2013-06-18 17:33:00,87.0,78.0,29.98,SE,138,4.0,16.0,74,0.00,,,0.00,,2013-06-18 21:33:00,
2013-06-18 17:43:00,86.0,76.0,29.98,East,84,9.0,17.0,73,0.00,,,0.00,,2013-06-18 21:43:00,
2013-06-18 17:52:00,86.0,76.0,29.97,East,95,7.0,15.0,73,0.00,,,0.00,,2013-06-18 21:52:00,
2013-06-18 18:02:00,86.0,76.0,29.97,East,95,7.0,15.0,73,0.00,,,0.00,,2013-06-18 22:02:00,
2013-06-18 18:11:00,86.0,76.0,29.97,East,100,7.0,21.0,73,0.00,,,0.00,,2013-06-18 22:11:00,
2013-06-18 18:22:00,86.0,77.0,29.97,ESE,120,8.0,12.0,74,0.00,,,0.00,,2013-06-18 22:22:00,
2013-06-18 18:34:00,86.0,77.0,29.97,ESE,120,8.0,12.0,74,0.00,,,0.00,,2013-06-18 22:34:00,
2013-06-18 18:43:00,86.0,76.0,29.97,ESE,119,8.0,16.0,72,0.00,,,0.00,,2013-06-18 22:43:00,
2013-06-18 18:53:00,85.0,75.0,29.97,ESE,112,7.0,14.0,73,0.00,,,0.00,,2013-06-18 22:53:00,
2013-06-18 19:02:00,85.0,75.0,29.97,ESE,112,7.0,14.0,73,0.00,,,0.00,,2013-06-18 23:02:00,
2013-06-18 19:12:00,85.0,76.0,29.97,SE,141,7.0,14.0,74,0.00,,,0.00,,2013-06-18 23:12:00,
2013-06-18 19:23:00,85.0,76.0,29.97,SE,143,8.0,15.0,74,0.00,,,0.00,,2013-06-18 23:23:00,
2013-06-18 19:37:00,85.0,76.0,29.97,SE,143,8.0,15.0,74,0.00,,,0.00,,2013-06-18 23:37:00,
2013-06-18 19:46:00,84.0,76.0,29.97,ESE,112,6.0,16.0,76,0.00,,,0.00,,2013-06-18 23:46:00,
2013-06-18 19:53:00,84.0,76.0,29.97,ESE,112,6.0,16.0,76,0.00,,,0.00,,2013-06-18 23:53:00,
2013-06-18 20:02:00,84.0,76.0,29.98,SSE,152,8.0,15.0,77,0.00,,,0.00,,2013-06-19 00:02:00,
2013-06-18 20:12:00,83.0,76.0,29.98,SE,136,8.0,15.0,79,0.00,,,0.00,,2013-06-19 00:12:00,
2013-06-18 20:22:00,83.0,77.0,29.99,SE,136,7.0,12.0,81,0.00,,,0.00,,2013-06-19 00:22:00,
2013-06-18 20:33:00,83.0,77.0,29.99,SE,136,7.0,12.0,81,0.00,,,0.00,,2013-06-19 00:33:00,
2013-06-18 20:43:00,82.0,76.0,29.99,SE,133,7.0,15.0,83,0.00,,,0.00,,2013-06-19 00:43:00,
2013-06-18 20:53:00,82.0,76.0,29.99,SE,133,7.0,15.0,83,0.00,,,0.00,,2013-06-19 00:53:00,
2013-06-18 21:01:00,82.0,76.0,30.00,ESE,120,6.0,13.0,83,0.00,,,0.00,,2013-06-19 01:01:00,
2013-06-18 21:11:00,82.0,77.0,29.99,SE,139,3.0,9.0,84,0.00,,,0.00,,2013-06-19 01:11:00,
2013-06-18 21:22:00,82.0,77.0,29.99,SE,139,3.0,9.0,84,0.00,,,0.00,,2013-06-19 01:22:00,
2013-06-18 21:32:00,82.0,77.0,29.99,SE,139,3.0,9.0,84,0.00,,,0.00,,2013-06-19 01:32:00,
2013-06-18 21:43:00,82.0,77.0,29.99,SE,139,3.0,9.0,84,0.00,,,0.00,,2013-06-19 01:43:00,
2013-06-18 21:53:00,82.0,77.0,29.99,SE,139,3.0,9.0,84,0.00,,,0.00,,2013-06-19 01:53:00,
2013-06-18 22:01:00,82.0,77.0,30.00,ESE,117,3.0,8.0,84,0.00,,,0.00,,2013-06-19 02:01:00,
2013-06-18 22:11:00,82.0,77.0,30.00,ESE,117,3.0,8.0,84,0.00,,,0.00,,2013-06-19 02:11:00,
2013-06-18 22:21:00,82.0,77.0,30.00,ESE,117,3.0,8.0,84,0.00,,,0.00,,2013-06-19 02:21:00,
2013-06-18 22:32:00,82.0,77.0,30.00,ESE,117,3.0,8.0,84,0.00,,,0.00,,2013-06-19 02:32:00,
2013-06-18 22:42:00,81.0,76.0,30.01,SE,129,2.0,8.0,86,0.00,,,0.00,,2013-06-19 02:42:00,
2013-06-18 22:52:00,81.0,76.0,30.01,SE,129,2.0,8.0,86,0.00,,,0.00,,2013-06-19 02:52:00,
2013-06-18 23:01:00,81.0,77.0,30.02,South,172,2.0,6.0,87,0.00,,,0.00,,2013-06-19 03:01:00,
2013-06-18 23:11:00,81.0,76.0,30.02,SSE,158,4.0,9.0,85,0.00,,,0.00,,2013-06-19 03:11:00,
2013-06-18 23:22:00,81.0,76.0,30.02,SSE,158,4.0,9.0,85,0.00,,,0.00,,2013-06-19 03:22:00,
2013-06-18 23:33:00,81.0,76.0,30.02,SSE,158,4.0,9.0,85,0.00,,,0.00,,2013-06-19 03:33:00,
2013-06-18 23:42:00,80.0,75.0,30.03,SSW,207,2.0,7.0,85,0.00,,,0.00,,2013-06-19 03:42:00,
2013-06-18 23:50:00,80.0,76.0,30.03,ESE,122,2.0,5.0,87,0.00,,,0.00,,2013-06-19 03:50:00,
2013-06-18 23:52:00,80.0,75.0,30.03,SSW,207,2.0,7.0,85,0.00,,,0.00,,2013-06-19 03:52:00,